TAM3254 SBGR-SBIL

Flight info

Callsign TAM3254
Flight time 1h 38m
Altitude 35000
Route VUMEV UZ14 DALOX
Aircraft A319/M-SDE3FGHIRWY/LB1

Departure

Time 2026-04-21 17:40
Airport São Paulo/Guarulhos–Governor André Franco Montoro International Airport (SBGR)

Arrival

Time 2026-04-21 19:18
Airport Bahia - Jorge Amado Airport (SBIL)
Time Latitude Longitude Altitude Speed Heading
2026-04-21 17:15 -23.42772 -46.48352 2465 ft 0 kts 85°
2026-04-21 17:32 -23.42773 -46.48371 2465 ft 4 kts 94°
2026-04-21 17:33 -23.42768 -46.48399 2465 ft 4 kts 115°
2026-04-21 17:33 -23.42753 -46.48422 2465 ft 4 kts 152°
2026-04-21 17:33 -23.42738 -46.48427 2465 ft 0 kts 180°
2026-04-21 17:36 -23.42739 -46.48427 2465 ft 1 kts 180°
2026-04-21 17:36 -23.42758 -46.48427 2465 ft 4 kts 180°
2026-04-21 17:36 -23.42794 -46.48427 2465 ft 6 kts 180°
2026-04-21 17:37 -23.42843 -46.48427 2465 ft 8 kts 180°
2026-04-21 17:37 -23.42899 -46.48432 2465 ft 9 kts 192°
2026-04-21 17:37 -23.42941 -46.48445 2467 ft 10 kts 195°
2026-04-21 17:37 -23.43036 -46.48448 2466 ft 11 kts 172°
2026-04-21 17:38 -23.43111 -46.48422 2466 ft 12 kts 162°
2026-04-21 17:38 -23.43191 -46.48398 2467 ft 12 kts 164°
2026-04-21 17:38 -23.43273 -46.48373 2468 ft 12 kts 164°
2026-04-21 17:38 -23.43364 -46.48344 2465 ft 17 kts 164°
2026-04-21 17:39 -23.43405 -46.48252 2461 ft 17 kts 73°
2026-04-21 17:39 -23.43338 -46.48001 2463 ft 58 kts 73°
2026-04-21 17:39 -23.43172 -46.47386 2458 ft 110 kts 73°
2026-04-21 17:39 -23.42911 -46.46414 2467 ft 156 kts 73°
2026-04-21 17:40 -23.42586 -46.45192 2875 ft 167 kts 75°
2026-04-21 17:40 -23.42253 -46.43996 3468 ft 170 kts 75°
2026-04-21 17:40 -23.41869 -46.42693 3723 ft 192 kts 74°
2026-04-21 17:40 -23.41433 -46.41217 3949 ft 217 kts 73°
2026-04-21 17:41 -23.40946 -46.39560 4322 ft 241 kts 74°
2026-04-21 17:41 -23.40415 -46.37737 4907 ft 261 kts 74°
2026-04-21 17:41 -23.39775 -46.35879 5692 ft 270 kts 60°
2026-04-21 17:41 -23.38754 -46.34125 6555 ft 276 kts 56°
2026-04-21 17:42 -23.37709 -46.32347 7377 ft 281 kts 57°
2026-04-21 17:42 -23.36650 -46.30531 8180 ft 287 kts 58°
2026-04-21 17:42 -23.35578 -46.28678 8960 ft 292 kts 58°
2026-04-21 17:42 -23.34486 -46.26793 9730 ft 297 kts 59°
2026-04-21 17:43 -23.33371 -46.24861 10327 ft 308 kts 59°
2026-04-21 17:43 -23.32204 -46.22836 10553 ft 330 kts 59°
2026-04-21 17:43 -23.30959 -46.20685 11074 ft 339 kts 59°
2026-04-21 17:43 -23.29687 -46.18496 11722 ft 343 kts 59°
2026-04-21 17:44 -23.28398 -46.16285 12398 ft 347 kts 59°
2026-04-21 17:44 -23.27098 -46.14055 13047 ft 350 kts 59°
2026-04-21 17:44 -23.25789 -46.11807 13713 ft 354 kts 59°
2026-04-21 17:44 -23.24484 -46.09562 14297 ft 357 kts 59°
2026-04-21 17:45 -23.23136 -46.07273 14845 ft 361 kts 56°
2026-04-21 17:45 -23.21480 -46.05197 15379 ft 366 kts 43°
2026-04-21 17:45 -23.19431 -46.03530 15934 ft 371 kts 31°
2026-04-21 17:45 -23.17066 -46.02368 16489 ft 374 kts 19°
2026-04-21 17:46 -23.14592 -46.01435 17063 ft 377 kts 19°
2026-04-21 17:46 -23.12093 -46.00645 17606 ft 381 kts 10°
2026-04-21 17:46 -23.09448 -46.00267 18164 ft 384 kts
2026-04-21 17:46 -23.06775 -45.99945 18676 ft 387 kts
2026-04-21 17:47 -23.04084 -45.99616 19183 ft 390 kts
2026-04-21 17:47 -23.01411 -45.99286 19691 ft 392 kts
2026-04-21 17:47 -22.98681 -45.98950 20215 ft 394 kts
2026-04-21 17:47 -22.95944 -45.98617 20730 ft 396 kts
2026-04-21 17:48 -22.94122 -45.98396 21070 ft 397 kts
2026-04-21 17:48 -22.90471 -45.97818 21731 ft 402 kts 13°
2026-04-21 17:48 -22.87819 -45.96806 22216 ft 406 kts 24°
2026-04-21 17:48 -22.85368 -45.95243 22682 ft 410 kts 34°
2026-04-21 17:49 -22.83029 -45.93466 23144 ft 412 kts 34°
2026-04-21 17:49 -22.80688 -45.91697 23602 ft 415 kts 33°
2026-04-21 17:49 -22.78306 -45.89902 23997 ft 418 kts 33°
2026-04-21 17:49 -22.75905 -45.88097 24369 ft 420 kts 33°
2026-04-21 17:50 -22.73486 -45.86282 24725 ft 423 kts 33°
2026-04-21 17:50 -22.71051 -45.84457 25093 ft 426 kts 33°
2026-04-21 17:50 -22.68639 -45.82647 25443 ft 429 kts 33°
2026-04-21 17:50 -22.66182 -45.80801 25794 ft 431 kts 33°
2026-04-21 17:51 -22.63705 -45.78937 26143 ft 434 kts 33°
2026-04-21 17:51 -22.61212 -45.77058 26475 ft 437 kts 33°
2026-04-21 17:51 -22.58729 -45.75188 26791 ft 439 kts 33°
2026-04-21 17:51 -22.56206 -45.73293 27124 ft 442 kts 33°
2026-04-21 17:52 -22.53672 -45.71392 27454 ft 444 kts 33°
2026-04-21 17:52 -22.51119 -45.69481 27774 ft 447 kts 33°
2026-04-21 17:52 -22.48547 -45.67558 28084 ft 449 kts 33°
2026-04-21 17:52 -22.45993 -45.65648 28401 ft 452 kts 33°
2026-04-21 17:53 -22.43396 -45.63705 28716 ft 454 kts 33°
2026-04-21 17:53 -22.40790 -45.61752 29034 ft 457 kts 33°
2026-04-21 17:53 -22.38172 -45.59792 29344 ft 459 kts 33°
2026-04-21 17:53 -22.35533 -45.57819 29641 ft 462 kts 33°
2026-04-21 17:54 -22.32877 -45.55835 29932 ft 464 kts 33°
2026-04-21 17:54 -22.30209 -45.53847 30211 ft 467 kts 33°
2026-04-21 17:54 -22.27562 -45.51875 30445 ft 469 kts 33°
2026-04-21 17:54 -22.24860 -45.49862 30679 ft 472 kts 33°
2026-04-21 17:55 -22.22149 -45.47842 30918 ft 474 kts 33°
2026-04-21 17:55 -22.19419 -45.45805 31151 ft 477 kts 33°
2026-04-21 17:55 -22.16681 -45.43763 31385 ft 479 kts 33°
2026-04-21 17:55 -22.13962 -45.41737 31616 ft 482 kts 33°
2026-04-21 17:56 -22.11197 -45.39677 31891 ft 483 kts 33°
2026-04-21 17:56 -22.08423 -45.37610 32245 ft 482 kts 33°
2026-04-21 17:56 -22.06595 -45.36249 32482 ft 482 kts 33°
2026-04-21 17:56 -22.03838 -45.34191 32826 ft 482 kts 33°
2026-04-21 17:57 -22.01116 -45.32059 33154 ft 483 kts 35°
2026-04-21 17:57 -21.97595 -45.29111 33601 ft 484 kts 37°
2026-04-21 17:57 -21.95813 -45.27566 33835 ft 484 kts 38°
2026-04-21 17:57 -21.93228 -45.25300 34162 ft 485 kts 38°
2026-04-21 17:58 -21.90596 -45.23004 34467 ft 485 kts 37°
2026-04-21 17:58 -21.87962 -45.20740 34775 ft 485 kts 37°
2026-04-21 17:58 -21.85308 -45.18490 35009 ft 486 kts 37°
2026-04-21 17:58 -21.82646 -45.16256 35068 ft 481 kts 37°
2026-04-21 17:59 -21.77413 -45.11883 35065 ft 477 kts 37°
2026-04-21 17:59 -21.72202 -45.07516 35063 ft 476 kts 37°
2026-04-21 18:00 -21.66970 -45.03125 35065 ft 476 kts 37°
2026-04-21 18:00 -21.61741 -44.98741 35065 ft 476 kts 37°
2026-04-21 18:01 -21.56549 -44.94384 35060 ft 476 kts 37°
2026-04-21 18:01 -21.51320 -44.89998 35056 ft 476 kts 37°
2026-04-21 18:02 -21.46093 -44.85612 35055 ft 476 kts 37°
2026-04-21 18:02 -21.40902 -44.81273 35056 ft 475 kts 37°
2026-04-21 18:03 -21.35670 -44.76911 35060 ft 475 kts 37°
2026-04-21 18:03 -21.30485 -44.72579 35062 ft 475 kts 37°
2026-04-21 18:04 -21.25265 -44.68228 35059 ft 474 kts 37°
2026-04-21 18:04 -21.20044 -44.63876 35053 ft 474 kts 37°
2026-04-21 18:05 -21.14856 -44.59555 35057 ft 473 kts 37°
2026-04-21 18:05 -21.09646 -44.55219 35056 ft 473 kts 37°
2026-04-21 18:06 -21.04440 -44.50891 35056 ft 473 kts 37°
2026-04-21 18:06 -20.99260 -44.46590 35055 ft 473 kts 37°
2026-04-21 18:07 -20.94052 -44.42272 35054 ft 473 kts 37°
2026-04-21 18:07 -20.88835 -44.37945 35061 ft 473 kts 37°
2026-04-21 18:08 -20.83622 -44.33631 35050 ft 473 kts 37°
2026-04-21 18:08 -20.78416 -44.29329 35053 ft 473 kts 37°
2026-04-21 18:09 -20.73227 -44.25049 35057 ft 473 kts 37°
2026-04-21 18:09 -20.68015 -44.20745 35055 ft 473 kts 37°
2026-04-21 18:10 -20.62828 -44.16453 35052 ft 473 kts 37°
2026-04-21 18:10 -20.57662 -44.12129 35051 ft 473 kts 38°
2026-04-21 18:11 -20.52502 -44.07760 35052 ft 473 kts 38°
2026-04-21 18:11 -20.47333 -44.03412 35043 ft 473 kts 37°
2026-04-21 18:12 -20.42100 -43.99140 35049 ft 473 kts 37°
2026-04-21 18:12 -20.36889 -43.94924 35053 ft 473 kts 37°
2026-04-21 18:13 -20.31660 -43.90664 35058 ft 473 kts 37°
2026-04-21 18:13 -20.26425 -43.86383 35057 ft 473 kts 37°
2026-04-21 18:14 -20.18617 -43.80011 35061 ft 473 kts 37°
2026-04-21 18:15 -20.13382 -43.75740 35062 ft 473 kts 37°
2026-04-21 18:15 -20.08146 -43.71484 35061 ft 473 kts 37°
2026-04-21 18:16 -20.02942 -43.67253 35057 ft 473 kts 37°
2026-04-21 18:16 -19.97707 -43.62992 35063 ft 473 kts 37°
2026-04-21 18:17 -19.92481 -43.58752 35052 ft 474 kts 37°
2026-04-21 18:17 -19.87224 -43.54490 35044 ft 474 kts 37°
2026-04-21 18:18 -19.82010 -43.50254 35048 ft 474 kts 37°
2026-04-21 18:18 -19.76775 -43.45992 35048 ft 473 kts 37°
2026-04-21 18:19 -19.71537 -43.41734 35055 ft 474 kts 37°
2026-04-21 18:19 -19.66324 -43.37509 35049 ft 473 kts 37°
2026-04-21 18:20 -19.61078 -43.33255 35053 ft 473 kts 37°
2026-04-21 18:20 -19.55846 -43.29007 35050 ft 473 kts 37°
2026-04-21 18:21 -19.50612 -43.24764 35046 ft 473 kts 37°
2026-04-21 18:21 -19.45406 -43.20552 35052 ft 473 kts 37°
2026-04-21 18:22 -19.40163 -43.16314 35048 ft 472 kts 37°
2026-04-21 18:22 -19.34960 -43.12114 35053 ft 472 kts 37°
2026-04-21 18:23 -19.29722 -43.07898 35043 ft 472 kts 37°
2026-04-21 18:23 -19.24514 -43.03710 35047 ft 472 kts 37°
2026-04-21 18:24 -19.19299 -42.99502 35050 ft 471 kts 38°
2026-04-21 18:24 -19.14076 -42.95292 35046 ft 471 kts 37°
2026-04-21 18:25 -19.08853 -42.91093 35046 ft 471 kts 37°
2026-04-21 18:25 -19.03658 -42.86921 35045 ft 471 kts 37°
2026-04-21 18:26 -18.98434 -42.82721 35046 ft 471 kts 37°
2026-04-21 18:26 -18.93204 -42.78528 35047 ft 471 kts 37°
2026-04-21 18:27 -18.87999 -42.74363 35047 ft 471 kts 38°
2026-04-21 18:27 -18.82807 -42.70202 35048 ft 470 kts 37°
2026-04-21 18:28 -18.77585 -42.66025 35052 ft 470 kts 37°
2026-04-21 18:28 -18.72361 -42.61853 35048 ft 470 kts 37°
2026-04-21 18:29 -18.67163 -42.57697 35051 ft 470 kts 38°
2026-04-21 18:29 -18.61939 -42.53528 35046 ft 470 kts 38°
2026-04-21 18:30 -18.56725 -42.49372 35040 ft 469 kts 38°
2026-04-21 18:30 -18.51541 -42.45244 35042 ft 469 kts 38°
2026-04-21 18:31 -18.46322 -42.41090 35037 ft 469 kts 38°
2026-04-21 18:31 -18.41147 -42.36966 35038 ft 468 kts 38°
2026-04-21 18:32 -18.35947 -42.32825 35034 ft 468 kts 38°
2026-04-21 18:32 -18.30739 -42.28696 35032 ft 468 kts 38°
2026-04-21 18:33 -18.25537 -42.24570 35031 ft 468 kts 38°
2026-04-21 18:33 -18.20373 -42.20465 35031 ft 467 kts 38°
2026-04-21 18:34 -18.15163 -42.16340 35034 ft 467 kts 38°
2026-04-21 18:34 -18.09987 -42.12245 35030 ft 467 kts 38°
2026-04-21 18:35 -18.05631 -42.08795 35029 ft 467 kts 38°
2026-04-21 18:35 -17.99583 -42.04015 35034 ft 467 kts 38°
2026-04-21 18:36 -17.94414 -41.99934 35033 ft 466 kts 38°
2026-04-21 18:36 -17.89218 -41.95827 35042 ft 466 kts 38°
2026-04-21 18:37 -17.84026 -41.91729 35030 ft 466 kts 39°
2026-04-21 18:37 -17.78871 -41.87660 35043 ft 466 kts 39°
2026-04-21 18:38 -17.73675 -41.83571 35044 ft 466 kts 39°
2026-04-21 18:38 -17.68487 -41.79494 35043 ft 465 kts 39°
2026-04-21 18:39 -17.63326 -41.75447 35042 ft 465 kts 39°
2026-04-21 18:39 -17.58131 -41.71358 35045 ft 465 kts 39°
2026-04-21 18:40 -17.52979 -41.67301 35048 ft 465 kts 39°
2026-04-21 18:40 -17.48672 -41.63917 35046 ft 465 kts 39°
2026-04-21 18:41 -17.42633 -41.59183 35041 ft 464 kts 39°
2026-04-21 18:41 -17.37458 -41.55135 35051 ft 464 kts 39°
2026-04-21 18:42 -17.32292 -41.51082 35052 ft 463 kts 39°
2026-04-21 18:42 -17.27159 -41.47063 35051 ft 463 kts 39°
2026-04-21 18:43 -17.22003 -41.43026 35048 ft 462 kts 39°
2026-04-21 18:43 -17.16849 -41.38999 35052 ft 462 kts 39°
2026-04-21 18:44 -17.12558 -41.35658 35050 ft 461 kts 39°
2026-04-21 18:44 -17.06583 -41.30992 35050 ft 461 kts 39°
2026-04-21 18:45 -17.01445 -41.26979 35043 ft 460 kts 39°
2026-04-21 18:45 -16.97172 -41.23639 35038 ft 460 kts 39°
2026-04-21 18:46 -16.92025 -41.19628 35040 ft 460 kts 39°
2026-04-21 18:46 -16.86867 -41.15632 35037 ft 460 kts 39°
2026-04-21 18:47 -16.81758 -41.11662 35034 ft 460 kts 39°
2026-04-21 18:47 -16.76618 -41.07659 35033 ft 460 kts 39°
2026-04-21 18:48 -16.71515 -41.03686 35038 ft 460 kts 39°
2026-04-21 18:48 -16.66368 -40.99685 35037 ft 459 kts 39°
2026-04-21 18:49 -16.61269 -40.95727 35037 ft 459 kts 39°
2026-04-21 18:49 -16.57004 -40.92428 35033 ft 459 kts 39°
2026-04-21 18:50 -16.51017 -40.87790 35031 ft 459 kts 39°
2026-04-21 18:50 -16.45888 -40.83817 35029 ft 459 kts 39°
2026-04-21 18:51 -16.40780 -40.79869 35025 ft 459 kts 39°
2026-04-21 18:51 -16.35648 -40.75912 35025 ft 458 kts 39°
2026-04-21 18:52 -16.30549 -40.71974 35024 ft 458 kts 39°
2026-04-21 18:52 -16.25417 -40.68008 35029 ft 458 kts 39°
2026-04-21 18:53 -16.20304 -40.64051 34831 ft 458 kts 39°
2026-04-21 18:53 -16.17760 -40.62086 34355 ft 462 kts 39°
2026-04-21 18:53 -16.15163 -40.60080 33830 ft 465 kts 39°
2026-04-21 18:53 -16.12555 -40.58070 33324 ft 467 kts 39°
2026-04-21 18:54 -16.09931 -40.56047 32806 ft 468 kts 39°
2026-04-21 18:54 -16.07303 -40.54022 32341 ft 468 kts 39°
2026-04-21 18:54 -16.04732 -40.52043 32100 ft 463 kts 39°
2026-04-21 18:54 -16.02139 -40.50049 31696 ft 462 kts 39°
2026-04-21 18:55 -16.00396 -40.48710 31459 ft 460 kts 39°
2026-04-21 18:55 -15.97002 -40.46106 30845 ft 455 kts 39°
2026-04-21 18:55 -15.94467 -40.44162 30388 ft 451 kts 39°
2026-04-21 18:55 -15.91977 -40.42252 29906 ft 447 kts 39°
2026-04-21 18:56 -15.89469 -40.40324 29369 ft 443 kts 39°
2026-04-21 18:56 -15.87026 -40.38447 28844 ft 439 kts 39°
2026-04-21 18:56 -15.84565 -40.36559 28361 ft 434 kts 39°
2026-04-21 18:56 -15.82131 -40.34693 27826 ft 431 kts 39°
2026-04-21 18:57 -15.79762 -40.32875 27442 ft 425 kts 39°
2026-04-21 18:57 -15.77392 -40.31061 27047 ft 420 kts 39°
2026-04-21 18:57 -15.75047 -40.29267 26630 ft 416 kts 39°
2026-04-21 18:57 -15.72707 -40.27477 26227 ft 416 kts 39°
2026-04-21 18:58 -15.70375 -40.25691 25806 ft 417 kts 39°
2026-04-21 18:58 -15.68064 -40.23920 25385 ft 418 kts 39°
2026-04-21 18:58 -15.65730 -40.22136 25097 ft 415 kts 39°
2026-04-21 18:58 -15.63388 -40.20345 24627 ft 417 kts 38°
2026-04-21 18:59 -15.61074 -40.18576 24428 ft 410 kts 38°
2026-04-21 18:59 -15.58802 -40.16795 24116 ft 407 kts 43°
2026-04-21 18:59 -15.56789 -40.14744 23798 ft 403 kts 48°
2026-04-21 18:59 -15.54865 -40.12672 23446 ft 402 kts 48°
2026-04-21 19:00 -15.52930 -40.10588 22991 ft 398 kts 48°
2026-04-21 19:00 -15.51016 -40.08528 22250 ft 393 kts 48°
2026-04-21 19:00 -15.49126 -40.06493 21494 ft 389 kts 48°
2026-04-21 19:00 -15.47287 -40.04523 20950 ft 380 kts 47°
2026-04-21 19:01 -15.45468 -40.02575 20552 ft 373 kts 47°
2026-04-21 19:01 -15.43666 -40.00644 20122 ft 371 kts 47°
2026-04-21 19:01 -15.41876 -39.98724 19702 ft 368 kts 46°
2026-04-21 19:01 -15.40104 -39.96824 19290 ft 365 kts 46°
2026-04-21 19:02 -15.38340 -39.94935 18882 ft 363 kts 46°
2026-04-21 19:02 -15.36590 -39.93056 18477 ft 361 kts 45°
2026-04-21 19:02 -15.34846 -39.91183 18034 ft 359 kts 45°
2026-04-21 19:02 -15.33141 -39.89353 17622 ft 356 kts 45°
2026-04-21 19:03 -15.31431 -39.87518 17223 ft 352 kts 45°
2026-04-21 19:03 -15.29740 -39.85701 16827 ft 348 kts 45°
2026-04-21 19:03 -15.28062 -39.83900 16434 ft 345 kts 45°
2026-04-21 19:03 -15.26400 -39.82119 16047 ft 342 kts 44°
2026-04-21 19:04 -15.24747 -39.80355 15659 ft 340 kts 45°
2026-04-21 19:04 -15.23104 -39.78607 15278 ft 337 kts 44°
2026-04-21 19:04 -15.21473 -39.76872 14899 ft 335 kts 44°
2026-04-21 19:04 -15.19856 -39.75144 14522 ft 333 kts 45°
2026-04-21 19:05 -15.18270 -39.73445 14147 ft 331 kts 44°
2026-04-21 19:05 -15.16653 -39.71714 13357 ft 337 kts 44°
2026-04-21 19:05 -15.15014 -39.69963 12531 ft 337 kts 45°
2026-04-21 19:05 -15.13413 -39.68253 11920 ft 331 kts 45°
2026-04-21 19:06 -15.11821 -39.66551 11469 ft 324 kts 46°
2026-04-21 19:06 -15.10271 -39.64896 11095 ft 318 kts 46°
2026-04-21 19:06 -15.08732 -39.63254 10716 ft 315 kts 46°
2026-04-21 19:06 -15.07209 -39.61631 10331 ft 312 kts 47°
2026-04-21 19:07 -15.05721 -39.60042 9966 ft 310 kts 48°
2026-04-21 19:07 -15.04238 -39.58462 9804 ft 299 kts 48°
2026-04-21 19:07 -15.02798 -39.56927 9490 ft 295 kts 47°
2026-04-21 19:07 -15.01371 -39.55407 9118 ft 293 kts 48°
2026-04-21 19:08 -14.99978 -39.53872 8718 ft 292 kts 53°
2026-04-21 19:08 -14.98762 -39.52222 8311 ft 291 kts 55°
2026-04-21 19:08 -14.97532 -39.50543 7942 ft 290 kts 54°
2026-04-21 19:08 -14.96318 -39.48889 7552 ft 290 kts 54°
2026-04-21 19:09 -14.95100 -39.47231 7213 ft 288 kts 55°
2026-04-21 19:09 -14.93888 -39.45584 6809 ft 286 kts 54°
2026-04-21 19:09 -14.92688 -39.43952 6465 ft 282 kts 54°
2026-04-21 19:09 -14.91521 -39.42365 6114 ft 279 kts 54°
2026-04-21 19:10 -14.90356 -39.40783 5787 ft 274 kts 55°
2026-04-21 19:10 -14.89201 -39.39216 5487 ft 272 kts 53°
2026-04-21 19:10 -14.88076 -39.37695 5397 ft 261 kts 56°
2026-04-21 19:10 -14.87007 -39.36249 5297 ft 251 kts 56°
2026-04-21 19:11 -14.85963 -39.34832 5191 ft 242 kts 55°
2026-04-21 19:11 -14.84964 -39.33474 5089 ft 232 kts 55°
2026-04-21 19:11 -14.84009 -39.32177 4983 ft 220 kts 56°
2026-04-21 19:11 -14.83105 -39.30952 4887 ft 209 kts 56°
2026-04-21 19:12 -14.82610 -39.30131 4838 ft 202 kts 69°
2026-04-21 19:12 -14.82234 -39.28327 4465 ft 191 kts 94°
2026-04-21 19:12 -14.82221 -39.26933 4048 ft 195 kts 95°
2026-04-21 19:12 -14.82189 -39.25548 3672 ft 195 kts 93°
2026-04-21 19:13 -14.82152 -39.24148 3303 ft 195 kts 91°
2026-04-21 19:13 -14.82111 -39.22805 3218 ft 178 kts 93°
2026-04-21 19:13 -14.82074 -39.21591 3158 ft 161 kts 94°
2026-04-21 19:13 -14.82040 -39.20487 3041 ft 147 kts 93°
2026-04-21 19:14 -14.82010 -39.19476 2868 ft 134 kts 94°
2026-04-21 19:14 -14.81986 -39.18549 2699 ft 128 kts 95°
2026-04-21 19:14 -14.81963 -39.17625 2524 ft 126 kts 92°
2026-04-21 19:14 -14.81944 -39.16724 2379 ft 126 kts 97°
2026-04-21 19:15 -14.81922 -39.15815 2230 ft 126 kts 95°
2026-04-21 19:15 -14.81898 -39.14914 2060 ft 126 kts 93°
2026-04-21 19:15 -14.81873 -39.14008 1908 ft 125 kts 93°
2026-04-21 19:15 -14.81849 -39.13107 1754 ft 125 kts 93°
2026-04-21 19:16 -14.81827 -39.12212 1580 ft 125 kts 90°
2026-04-21 19:16 -14.81805 -39.11318 1422 ft 125 kts 94°
2026-04-21 19:16 -14.81781 -39.10423 1268 ft 123 kts 94°
2026-04-21 19:16 -14.81757 -39.09533 1089 ft 125 kts 94°
2026-04-21 19:17 -14.81710 -39.07740 763 ft 129 kts 92°
2026-04-21 19:17 -14.81684 -39.06803 595 ft 131 kts 95°
2026-04-21 19:17 -14.81661 -39.05879 413 ft 132 kts 91°
2026-04-21 19:18 -14.81635 -39.04933 229 ft 131 kts 93°
2026-04-21 19:18 -14.81603 -39.03994 35 ft 129 kts 93°
2026-04-21 19:18 -14.81590 -39.03266 19 ft 62 kts 88°
2026-04-21 19:18 -14.81581 -39.02889 18 ft 36 kts 89°
2026-04-21 19:19 -14.81577 -39.02690 19 ft 22 kts 91°
2026-04-21 19:19 -14.81588 -39.02602 21 ft 1 kts 15°
2026-04-21 19:19 -14.81583 -39.02616 21 ft 1 kts 247°
2026-04-21 19:19 -14.81588 -39.02620 22 ft 1 kts 241°
2026-04-21 19:20 -14.81579 -39.02630 22 ft 4 kts 307°
2026-04-21 19:20 -14.81546 -39.02669 20 ft 9 kts 313°
2026-04-21 19:20 -14.81544 -39.02695 19 ft 4 kts 201°
2026-04-21 19:20 -14.81572 -39.02712 19 ft 7 kts 220°
2026-04-21 19:21 -14.81583 -39.02764 22 ft 9 kts 269°
2026-04-21 19:21 -14.81583 -39.02841 18 ft 12 kts 269°
2026-04-21 19:21 -14.81584 -39.02938 18 ft 15 kts 269°
2026-04-21 19:21 -14.81584 -39.03021 18 ft 8 kts 270°
2026-04-21 19:22 -14.81555 -39.03078 18 ft 10 kts 327°
2026-04-21 19:22 -14.81509 -39.03085 18 ft 5 kts 356°
2026-04-21 19:22 -14.81487 -39.03096 20 ft 3 kts 320°
2026-04-21 19:22 -14.81483 -39.03124 19 ft 5 kts 275°
2026-04-21 19:23 -14.81481 -39.03164 19 ft 0 kts 274°
2026-04-21 19:23 -14.81481 -39.03168 19 ft 1 kts 274°
2026-04-21 19:23 -14.81479 -39.03180 21 ft 2 kts 282°
2026-04-21 19:23 -14.81475 -39.03182 20 ft 0 kts 310°
2026-04-21 19:24 -14.81472 -39.03185 20 ft 1 kts 321°
2026-04-21 19:24 -14.81465 -39.03190 19 ft 2 kts 323°
2026-04-21 19:24 -14.81452 -39.03200 21 ft 3 kts 323°
2026-04-21 19:24 -14.81445 -39.03208 21 ft 0 kts 311°
2026-04-21 19:25 -14.81441 -39.03212 20 ft 0 kts 311°